Lapse_Rate
6.6 6.6 6.8 6.8 6.8 6.7 6.6 6.5 6.7 6.7 6.5 6.7 6.8 6.8 6.8 6.9 6.9 6.9 6.8 6.7 6.6 6.6 6.4 6.3 6.3 6.5 6.7 7.0 7.0 7.1 7.2 7.4 7.2 7.1 7.2 7.4 7.6 8.0 8.2 8.2 8.0 8.1 7.9 8.1 8.2 8.4 8.1
6.3 6.3 6.6 6.6 6.4 6.4 6.4 6.4 6.5 6.4 6.6 6.7 6.7 6.7 6.8 6.7 6.9 6.9 6.8 6.8 6.5 6.4 6.2 6.3 6.4 6.6 7.0 7.0 7.2 7.1 7.7 7.3 7.0 7.3 7.6 7.7 7.8 7.8 7.8 8.0 8.0 8.1 8.3 7.9 7.9 7.9 7.8
6.4 6.2 6.4 6.3 6.2 6.2 6.2 6.2 6.1 6.2 6.3 6.4 6.5 6.6 6.6 6.6 6.7 6.8 6.7 6.6 6.5 6.4 6.2 6.4 6.6 6.6 7.0 7.5 7.3 7.7 7.6 7.6 7.9 7.9 7.9 8.0 8.1 8.0 7.9 7.8 8.2 8.2 8.1 7.6 7.8 7.9 7.7
6.2 6.2 6.2 6.3 6.2 6.1 6.1 6.1 6.1 6.2 6.2 6.2 6.3 6.4 6.4 6.4 6.7 6.7 6.5 6.4 6.4 6.5 6.5 6.5 6.6 6.9 7.3 7.4 7.7 7.5 7.3 7.8 8.1 8.1 8.0 7.9 8.3 8.1 7.7 7.8 8.1 8.0 7.9 7.8 7.9 8.0 7.9
6.0 6.1 6.1 6.1 6.1 6.0 6.1 6.0 6.1 6.0 6.1 6.1 6.2 6.2 6.3 6.5 6.5 6.5 6.6 6.6 6.6 6.6 6.6 6.6 6.6 6.8 7.0 7.2 7.5 7.7 7.6 8.0 8.2 8.1 7.8 7.8 8.0 7.8 7.6 7.8 7.6 7.5 7.8 8.3 8.4 8.0 8.0
6.0 6.1 6.0 5.9 5.7 5.8 5.8 5.9 5.8 5.9 6.0 6.1 6.1 6.2 6.2 6.2 6.2 6.2 6.4 6.5 6.6 6.4 6.4 6.4 6.7 6.9 6.9 7.5 7.2 7.8 7.9 8.1 8.1 7.9 7.9 8.0 7.6 7.6 7.4 8.2 7.7 7.8 8.0 8.0 7.8 7.7 7.8
6.2 6.2 6.1 5.9 5.8 5.7 5.7 5.8 5.8 5.9 6.0 6.0 6.1 6.1 6.1 6.1 6.1 6.1 6.2 6.4 6.6 6.7 6.7 6.7 6.9 6.9 7.3 7.5 7.6 7.8 7.9 8.0 8.0 7.5 7.5 7.7 7.5 7.5 7.7 7.4 7.3 7.5 7.6 7.7 7.9 7.9 7.8
6.4 6.3 6.1 5.9 5.7 5.6 5.8 5.8 5.9 6.0 6.0 6.1 6.1 6.2 6.3 6.4 6.4 6.3 6.3 6.7 6.6 7.0 7.0 6.9 7.3 7.2 7.4 7.5 7.4 7.8 8.0 8.1 7.9 7.6 7.5 7.7 7.6 7.5 7.6 7.4 7.4 7.4 7.3 7.5 7.8 7.7 7.3
6.3 6.2 6.2 6.1 5.9 5.9 5.9 5.9 5.9 6.0 6.0 6.1 6.2 6.2 6.3 6.5 6.6 6.7 6.8 6.7 6.6 6.8 7.1 7.2 7.3 7.5 7.5 7.5 7.6 7.7 7.8 7.8 7.8 7.4 7.4 7.3 7.3 7.3 7.4 7.0 7.3 7.3 6.9 7.1 7.1 7.4 8.1
6.2 6.2 6.2 6.1 6.0 6.0 5.9 5.9 6.0 6.1 6.2 6.2 6.3 6.3 6.3 6.4 6.5 6.6 6.9 6.8 6.8 6.9 6.9 7.0 7.0 6.9 7.4 7.2 7.2 7.5 7.5 7.6 7.2 7.2 7.5 7.2 7.0 7.2 7.2 6.9 7.0 7.2 7.1 7.1 7.1 6.9 7.2
6.1 6.0 5.9 5.9 5.9 5.9 5.9 6.0 6.1 6.1 6.2 6.3 6.4 6.4 6.5 6.5 6.7 6.8 6.9 6.9 7.0 7.1 6.6 7.1 7.0 7.1 7.3 7.4 7.2 7.2 7.3 7.5 7.4 7.4 7.3 7.1 7.2 7.1 7.1 6.8 6.6 6.5 6.4 7.0 7.4 7.4 7.3
5.9 5.8 5.9 5.9 5.8 5.8 5.9 6.1 6.1 6.1 6.2 6.3 6.5 6.6 6.6 6.8 7.0 7.0 7.0 6.9 7.1 6.9 7.0 7.2 7.0 7.0 6.9 7.0 7.2 7.0 6.8 7.3 7.2 7.4 7.1 7.1 7.1 7.2 7.0 6.7 6.3 6.3 6.4 7.4 7.5 7.4 7.0
5.8 5.8 5.8 5.8 5.8 5.8 5.8 5.8 5.9 6.1 6.4 6.6 6.5 6.6 6.7 6.9 7.2 7.1 7.0 7.0 7.0 7.1 7.3 7.2 7.1 7.2 7.1 7.1 7.0 7.1 6.8 6.9 7.2 7.4 7.1 7.2 6.8 6.7 6.9 6.8 6.8 6.6 6.5 6.2 5.8 5.4 5.3
5.7 5.8 5.8 5.7 5.8 5.8 5.8 5.8 5.9 6.0 6.2 6.4 6.6 6.6 6.6 6.7 6.9 7.1 7.2 7.2 7.1 7.4 7.4 7.3 7.4 7.2 7.2 7.2 6.9 6.9 6.8 6.5 7.0 6.9 6.7 6.6 6.6 6.4 6.4 6.3 6.3 6.2 6.3 6.2 5.1 4.1 5.2
5.7 5.7 5.6 5.6 5.6 5.6 5.7 5.7 5.8 6.0 6.1 6.3 6.5 6.6 6.7 6.7 6.8 7.0 7.0 7.0 7.1 7.1 7.2 7.4 7.3 7.4 7.2 7.1 7.2 7.1 6.8 6.5 6.5 6.5 6.5 6.1 6.6 6.6 6.3 6.4 6.2 6.3 6.2 6.2 6.2 6.1 5.6
5.7 5.7 5.7 5.7 5.7 5.6 5.7 5.8 5.8 6.1 6.2 6.2 6.2 6.5 6.5 6.6 6.7 6.8 6.8 6.7 7.1 7.1 7.3 7.2 7.2 7.4 7.2 7.0 7.3 7.1 6.7 6.5 6.0 6.3 6.0 5.7 5.9 6.4 6.3 6.4 6.5 6.4 6.2 6.3 6.3 4.6 4.8
5.8 5.8 5.8 5.7 5.6 5.7 5.7 5.9 5.9 6.0 6.0 6.0 6.2 6.5 6.4 6.7 6.7 6.7 6.6 6.8 7.0 7.1 7.2 7.1 7.0 7.0 6.9 7.0 6.9 6.9 6.6 6.4 6.2 6.1 5.7 5.8 5.6 6.6 6.7 6.6 6.5 6.4 6.5 6.7 6.2 6.1 5.7
5.9 5.9 5.8 5.7 5.6 5.7 5.8 5.9 5.9 6.0 5.9 5.8 6.0 6.1 6.4 6.4 6.5 6.5 6.6 6.6 6.8 6.7 6.7 7.0 7.0 7.0 6.8 6.6 6.6 6.6 6.5 6.4 6.1 6.2 5.7 5.7 5.8 5.6 6.7 6.7 6.6 6.6 6.5 6.6 6.6 6.2 6.3
5.8 5.8 5.8 5.8 5.7 5.8 5.9 5.9 5.9 5.9 5.9 6.0 6.3 6.1 6.3 6.4 6.4 6.5 6.6 6.8 6.9 6.7 6.8 6.7 6.8 6.8 6.7 6.4 6.5 6.4 6.2 6.2 6.1 6.0 6.0 5.8 5.6 5.5 6.6 6.6 6.6 6.4 6.8 6.6 6.5 6.5 6.4
5.9 5.8 5.9 5.9 6.0 5.9 6.0 6.0 6.0 6.0 5.9 5.9 6.1 6.2 6.4 6.4 6.3 6.4 6.4 6.3 6.7 6.7 6.9 7.0 6.9 6.6 6.3 6.4 6.3 6.2 6.1 6.0 6.1 6.0 6.0 6.0 5.9 5.6 5.7 5.8 5.4 5.4 5.7 6.7 6.1 5.7 5.9
6.0 5.9 5.9 5.9 6.0 6.1 6.1 6.1 6.1 6.1 6.0 5.9 6.0 6.2 6.3 6.3 6.2 6.3 6.4 6.4 6.4 6.4 6.5 6.5 6.3 6.4 6.3 6.2 6.1 6.1 6.1 6.2 6.1 6.0 5.8 5.6 5.6 5.6 5.6 5.5 5.7 5.8 5.7 6.4 6.0 6.1 5.7
6.1 6.0 6.0 6.1 6.1 6.1 6.3 6.3 6.2 6.1 6.0 5.9 5.9 6.0 6.2 6.4 6.3 6.4 6.4 6.4 6.5 6.4 6.6 6.1 6.4 6.2 6.1 6.1 6.1 5.9 6.1 6.1 6.1 6.4 6.2 5.8 5.4 5.4 5.4 5.9 5.8 5.5 6.5 6.5 6.3 6.6 6.6
6.1 6.0 6.0 6.0 6.1 6.2 6.2 6.2 6.2 6.1 5.9 6.1 6.0 6.0 6.1 6.1 6.2 6.2 6.2 6.1 6.3 6.3 6.1 6.3 6.3 6.5 6.3 6.3 6.2 6.2 6.2 6.2 6.3 6.5 6.8 6.0 5.7 5.7 5.4 5.8 5.6 5.6 7.0 6.5 6.3 6.8 6.8
6.2 6.1 6.0 6.0 5.9 6.1 6.2 6.2 6.1 6.0 5.9 6.0 6.0 5.9 6.1 6.1 6.2 6.2 6.0 6.0 6.2 6.1 6.1 6.2 5.9 6.2 6.2 6.1 6.0 6.2 6.4 6.7 6.7 6.9 6.3 6.3 6.4 5.9 5.6 5.6 5.1 6.5 6.8 7.0 6.5 6.6 6.9
6.1 6.3 6.1 6.1 6.1 6.0 6.1 6.2 6.1 6.0 5.9 5.9 5.8 5.8 6.0 6.1 6.2 6.2 6.2 6.3 6.4 6.5 6.3 6.2 6.2 6.0 6.3 6.0 5.7 6.0 6.2 6.5 6.7 6.3 6.5 6.3 6.1 5.9 5.6 4.9 5.1 5.8 6.5 6.3 6.3 6.1 6.3
6.1 6.2 6.2 6.1 6.0 6.0 6.1 6.2 6.3 6.2 6.0 5.9 5.9 5.7 5.8 5.9 6.2 6.1 6.2 6.3 6.5 6.2 6.4 6.4 6.1 6.2 6.1 6.0 6.0 5.4 5.7 5.8 5.8 6.2 6.2 6.1 6.1 5.9 5.8 5.0 4.7 6.5 6.3 6.3 6.1 5.8 6.5
6.1 6.1 6.2 6.2 6.1 6.2 6.0 5.9 6.0 6.0 6.0 6.0 6.0 5.8 5.7 5.8 6.0 6.0 6.3 6.3 6.3 6.2 6.0 5.9 6.0 6.1 5.9 5.9 5.7 5.3 5.1 5.8 5.7 5.8 5.7 5.8 5.6 5.9 6.2 5.3 5.7 7.3 6.6 6.8 6.6 6.3 6.0
6.0 6.3 6.2 6.1 6.2 6.1 6.0 5.9 5.9 5.9 5.8 5.7 5.9 5.8 5.8 6.0 6.1 6.0 6.3 6.4 6.4 6.2 6.1 5.9 5.7 6.0 5.8 5.8 5.6 5.6 5.1 5.5 5.3 5.5 5.8 5.9 5.9 5.9 5.5 5.5 5.9 7.2 7.1 7.2 6.7 6.3 6.5
6.0 6.2 6.2 6.2 6.3 6.3 6.5 6.4 6.3 6.0 6.3 6.1 6.0 6.1 6.1 6.0 6.2 6.3 6.6 6.8 6.7 6.7 6.3 6.2 6.1 6.0 5.5 5.9 5.7 5.2 5.1 4.7 5.1 4.7 5.8 5.4 6.5 6.5 6.4 6.2 6.9 7.4 7.2 6.8 6.9 6.7 6.5
Wind_Speed
11 12 12 13 14 14 14 12 12 11 10 9 8 7 7 8 9 9 9 11 9 8 8 7 9 11 3 3 3 4 10 15 13 6 8 9 8 6 5 3 6 4 4 1 7 7 7
11 12 14 14 14 14 13 12 10 8 7 6 5 5 5 6 7 9 11 8 8 8 6 6 6 7 3 0 6 3 9 9 8 8 9 8 5 6 5 3 3 3 5 2 6 6 6
13 14 15 16 16 15 13 12 12 10 8 8 7 5 4 4 6 8 8 8 10 7 5 1 4 3 1 3 3 7 7 1 6 5 5 6 7 5 6 1 1 6 5 7 6 8 4
13 14 15 16 17 17 17 16 14 12 11 10 10 8 6 4 5 6 8 10 11 4 1 3 2 2 1 3 5 7 6 3 3 7 3 3 6 5 1 4 3 3 2 2 10 8 5
12 14 15 16 19 19 19 17 16 15 13 11 9 8 7 5 4 3 5 8 10 6 5 8 2 2 3 1 3 7 1 5 8 8 7 6 3 4 2 2 4 6 4 7 8 7 3
11 13 14 15 17 18 18 18 18 17 16 14 11 10 8 7 4 3 5 5 4 9 6 6 6 3 2 2 2 4 6 7 8 8 7 4 3 2 5 7 3 6 6 6 4 4 6
11 12 14 16 17 17 18 20 21 19 16 14 14 13 10 7 6 7 6 3 4 3 4 3 3 4 6 5 2 4 5 6 6 5 4 4 6 3 4 4 3 6 7 5 5 10 10
9 11 13 14 16 17 19 21 21 20 17 16 15 13 11 8 7 5 1 1 2 2 3 0 5 4 2 2 4 9 9 7 5 5 4 7 4 3 5 9 7 7 6 6 4 11 8
6 8 12 14 16 20 21 23 22 22 19 18 16 13 12 10 9 1 6 3 4 6 1 2 1 3 3 3 2 5 4 6 4 6 7 3 2 5 6 6 8 5 5 6 7 10 11
5 9 11 12 16 18 21 24 23 23 21 18 17 15 12 11 4 2 2 4 4 1 3 4 5 1 2 2 1 1 2 2 4 3 5 2 2 6 7 3 6 5 7 9 11 7 3
5 7 9 11 15 16 20 23 24 24 22 19 17 16 15 3 2 3 2 8 6 4 4 1 3 2 4 5 5 1 2 0 3 5 3 4 2 4 5 4 4 7 5 12 14 9 2
3 5 8 11 15 17 20 23 25 24 23 19 18 17 17 2 2 2 7 7 4 6 2 2 1 2 1 3 1 7 3 4 1 5 3 5 4 4 1 7 5 7 7 11 4 3 3
2 3 6 9 14 18 21 24 26 26 24 19 15 17 8 3 1 5 5 3 4 5 2 3 3 4 3 4 4 3 7 13 6 6 6 7 4 3 2 5 7 12 6 4 6 4 4
1 4 7 11 15 19 22 25 26 26 26 21 14 12 5 3 6 6 3 5 3 6 6 2 3 3 3 5 1 5 5 4 9 7 3 4 6 6 7 3 4 5 3 4 2 1 5
1 4 6 10 14 18 21 25 27 28 28 23 9 1 1 3 6 3 4 4 5 3 5 6 2 3 3 1 2 4 6 5 5 7 5 6 4 8 3 1 3 6 4 2 2 2 3
0 4 6 9 13 16 19 23 27 29 28 16 2 1 2 5 4 4 4 0 4 6 7 4 4 5 5 6 7 5 5 5 2 7 5 4 5 5 6 3 4 4 0 5 3 2 3
2 3 5 7 11 14 18 22 27 31 35 2 1 3 3 3 4 4 3 3 5 4 5 6 7 5 6 5 5 4 5 5 7 8 8 6 3 8 6 1 4 2 4 2 2 1 3
4 1 5 8 11 14 18 21 25 29 33 3 2 3 4 3 3 2 2 4 1 1 2 3 6 6 5 6 5 6 4 4 4 5 4 3 2 3 9 15 9 6 7 6 3 5 4
5 2 2 7 10 13 17 21 24 24 22 2 2 2 3 4 3 2 2 4 5 7 6 6 3 5 3 3 3 6 2 3 4 3 3 2 3 3 8 6 7 6 15 12 6 0 7
5 3 1 5 7 12 16 20 24 25 21 2 2 3 4 4 1 6 4 4 4 3 3 3 2 2 4 6 6 4 5 5 5 2 6 6 2 5 5 6 5 10 19 21 11 2 8
6 4 2 3 6 10 14 18 23 27 27 2 2 1 4 1 5 6 6 4 6 4 2 1 1 1 4 3 5 3 6 7 6 7 4 6 5 6 8 7 10 14 19 20 15 17 12
9 7 3 2 5 8 12 16 20 26 30 3 2 3 4 2 6 7 5 5 6 5 5 3 4 8 8 3 2 4 5 5 4 4 5 2 6 2 6 11 10 8 20 21 19 14 10
11 8 5 2 3 6 9 13 17 23 14 3 3 2 4 6 3 4 3 3 5 5 3 2 4 3 5 1 2 2 2 5 8 9 5 5 3 2 15 4 5 7 13 4 6 14 13
14 11 9 6 2 2 6 10 14 17 15 1 1 2 4 2 3 2 5 5 5 3 1 4 5 4 4 6 4 6 6 6 5 14 6 4 3 2 4 3 4 8 14 21 16 9 7
16 14 12 9 6 3 3 7 10 14 16 3 2 3 3 1 2 5 5 2 6 4 3 2 3 4 2 6 4 6 5 7 6 6 5 5 5 1 2 3 8 9 9 3 11 17 4
19 17 15 13 10 7 4 4 7 10 13 1 2 2 4 5 4 4 3 3 2 3 5 3 4 4 6 3 3 1 3 4 4 6 7 7 6 3 1 4 7 8 3 6 7 11 5
19 18 17 16 14 11 7 4 3 4 8 3 2 3 3 3 4 0 1 2 1 1 1 1 2 4 4 2 1 4 4 3 3 4 4 3 3 2 2 5 7 7 5 1 4 9 6
20 18 17 16 15 14 11 7 5 3 2 3 3 4 3 2 4 2 2 3 3 2 4 3 5 4 3 2 3 3 4 4 2 4 3 4 2 4 3 4 8 2 3 3 6 4 7
19 18 19 18 16 16 15 12 8 5 2 1 0 4 4 2 4 3 5 2 3 2 3 0 6 2 5 3 2 2 3 1 4 5 4 3 7 4 8 6 5 10 12 10 15 18 8
Wind_Direction
357 345 343 350 348 349 345 346 336 328 321 312 296 281 273 268 270 279 276 269 283 306 313 331 357 345 351 359 59 217 295 293 287 291 276 355 20 2 51 40 12 76 150 190 163 188 215
355 350 347 352 353 350 354 347 338 334 324 308 303 310 292 279 274 267 262 277 286 284 302 341 358 330 44 260 251 191 281 328 351 4 22 6 342 327 300 41 22 310 289 214 215 232 216
356 352 353 354 355 356 352 353 355 353 356 356 352 343 323 306 284 274 278 272 265 256 260 351 24 358 161 202 259 299 251 348 325 322 354 348 324 343 337 266 359 285 263 282 242 239 201
357 356 354 355 359 1 1 3 359 5 11 12 7 358 351 306 267 272 270 264 264 261 311 181 154 238 306 262 298 310 349 211 292 312 315 298 290 309 271 338 306 271 349 44 241 199 209
1 4 359 2 5 2 4 2 6 11 13 16 12 7 360 331 309 301 289 291 295 300 176 137 152 194 216 42 14 315 44 337 305 274 258 232 273 231 45 294 3 29 347 351 327 148 171
6 5 6 7 8 3 0 4 10 12 15 12 11 10 5 8 356 324 309 280 302 324 168 203 246 325 356 88 326 285 348 315 259 282 294 268 203 112 30 45 2 316 330 307 3 307 346
9 8 9 12 9 3 1 6 10 13 10 9 13 11 3 8 13 350 341 355 358 340 199 111 5 68 40 344 229 11 342 299 264 276 297 277 58 84 356 293 258 347 315 319 320 345 357
11 11 17 9 9 8 7 6 8 9 6 10 11 5 358 347 336 321 346 83 60 181 324 300 148 98 283 311 306 10 18 25 356 322 20 9 94 22 316 313 42 358 327 345 324 335 323
13 18 21 13 13 12 11 6 4 6 5 6 7 360 353 339 328 355 106 53 30 349 173 162 322 127 265 312 56 334 35 330 274 348 15 2 63 8 342 10 32 351 33 347 314 318 306
9 27 24 18 22 15 12 7 4 4 2 359 360 358 352 340 28 226 60 355 345 13 62 167 220 160 246 197 197 107 350 47 321 37 339 241 98 34 339 84 31 332 347 329 305 333 297
14 22 18 16 25 15 12 11 5 2 360 355 355 357 349 9 268 57 298 341 323 59 66 310 50 253 260 94 309 296 201 143 35 316 53 278 54 13 25 349 340 248 302 283 279 255 292
28 14 13 12 17 11 11 10 6 3 0 355 350 349 344 75 47 335 355 335 47 47 306 124 134 294 250 69 72 327 91 0 43 296 240 242 139 81 8 307 300 307 340 309 325 128 53
65 6 12 17 17 12 8 7 5 1 2 358 342 340 357 18 190 335 351 45 38 105 174 92 65 20 335 12 33 352 69 52 43 15 351 326 115 113 27 347 351 8 14 355 10 12 219
84 16 11 21 15 11 8 5 3 358 0 357 337 334 51 58 353 358 48 50 63 309 69 134 25 223 73 21 101 359 81 64 31 19 307 358 340 19 352 78 334 310 53 118 301 320 286
63 22 17 21 13 11 7 3 359 355 358 350 342 290 56 321 357 38 70 51 177 330 1 1 263 312 136 124 164 36 71 54 41 30 23 4 303 341 85 38 94 321 36 227 134 10 58
20 19 18 14 11 8 4 1 359 355 351 346 16 96 343 325 25 55 73 223 76 37 352 316 13 24 45 38 26 28 84 19 64 34 26 323 311 317 337 312 256 172 298 24 2 344 288
200 4 11 6 4 3 0 2 2 360 349 23 52 64 272 359 56 47 129 116 105 41 17 29 16 39 58 33 350 30 71 51 32 346 339 37 58 301 351 91 341 38 348 17 12 294 218
185 5 360 357 355 355 356 359 3 8 360 57 346 62 285 52 51 357 51 17 303 95 52 47 48 53 20 43 4 32 83 83 16 349 33 349 159 291 278 277 267 63 0 348 132 275 231
192 185 4 355 350 350 352 354 357 8 26 344 15 133 306 77 94 328 89 65 57 15 26 27 73 19 14 10 51 27 29 136 101 83 129 15 342 347 340 7 8 15 332 328 315 193 234
180 183 302 342 350 350 350 350 351 356 0 105 43 38 329 23 253 151 151 162 115 25 62 28 88 255 39 14 21 356 335 202 182 148 157 107 204 165 207 243 299 320 310 305 299 232 277
170 186 242 332 353 348 348 349 349 351 348 85 38 253 177 325 338 58 44 350 144 137 109 4 225 112 72 61 357 329 2 5 351 155 195 150 217 226 257 278 291 290 290 286 292 287 288
184 181 199 326 347 348 348 349 352 353 348 72 89 59 359 16 351 69 35 350 358 115 49 84 33 14 31 93 150 5 29 18 267 310 344 296 259 215 272 278 276 293 281 286 286 277 273
198 188 182 202 347 351 350 352 358 1 358 33 320 1 96 314 9 58 248 322 75 77 15 79 53 23 21 21 50 345 304 257 246 263 260 243 190 162 278 330 11 310 273 266 266 308 291
218 206 194 188 201 329 348 355 359 9 25 274 307 70 77 287 95 202 332 5 14 46 179 20 28 80 289 357 44 20 347 305 301 269 222 239 129 131 275 27 229 240 315 303 293 278 327
218 223 216 202 202 229 323 351 358 9 13 23 324 75 113 198 241 336 328 326 342 347 341 17 5 140 81 46 44 356 334 5 299 246 57 161 125 216 269 212 276 288 264 302 318 309 358
215 220 223 224 212 218 252 322 349 4 7 8 327 51 99 112 264 274 316 316 219 243 339 267 73 95 73 84 72 137 256 244 291 322 110 78 89 130 284 271 292 228 316 322 313 281 342
223 222 225 227 227 223 232 261 304 360 15 25 301 20 91 106 278 32 191 212 326 359 156 329 144 17 54 106 150 239 248 273 241 200 267 350 349 205 236 263 266 257 257 58 44 291 288
216 224 226 227 233 233 229 232 257 285 29 57 284 19 100 121 281 314 337 250 350 54 138 259 32 348 59 112 159 229 216 252 321 243 229 187 184 223 223 237 269 226 344 51 255 268 288
212 215 226 225 228 232 229 226 225 222 212 108 344 39 25 126 239 315 276 263 180 174 142 235 185 185 186 116 202 178 238 246 196 269 230 270 200 211 195 223 246 316 301 304 305 299 289